Location: Corcelles
(46.1547°N, 4.7234°E)
Time: 03:20:57
(UTC+00:00)

IRS-1D - Pass Details

Date: 14 July 2020
Orbit: 739 x 817 km, 98.6° (Epoch: 06 August)

Event Time Altitude Azimuth Distance (km) Brightness Sun altitude
Rises 02:18:41 0° 11° (N) 3,196 8.0 -14.0°
Reaches altitude 10° 02:21:00 10° 9° (N) 2,263 7.0 -13.8°
Maximum altitude 02:25:54 65° 288° (WNW) 813 3.5 -13.3°
Enters shadow 02:29:29 18° 210° (SSW) 1,744 4.7 -12.9°
